Theta_e
327 325 326 326 327 325 324 323 323 322 322 322 321 320 321 321 322 322 321 321 320 320 321 319 319 320 321 322 321 321 320 319 318 316 315 317 314 315 318 318 318 319 319 320 320 317 315 312 314 320 322 322 323 324 328 327 326 327 328 329 330 329 329
328 327 326 326 324 323 321 322 321 319 320 321 320 320 320 320 320 320 319 318 318 319 319 319 319 319 320 319 318 318 317 317 316 316 316 314 314 314 314 315 316 316 316 317 318 317 313 311 311 312 313 318 319 321 322 323 324 324 324 325 327 328 329
326 325 325 324 323 323 321 320 321 321 319 320 320 319 319 318 318 318 317 317 317 318 318 317 317 318 318 317 317 317 315 315 314 315 315 313 314 314 314 313 312 313 313 313 314 313 313 313 309 309 311 311 310 314 318 319 319 320 321 322 324 326 326
325 324 323 322 322 321 319 318 318 319 319 319 320 318 318 317 317 317 317 316 317 318 317 315 316 316 316 315 315 315 314 314 313 314 314 314 313 313 312 313 311 311 310 310 310 311 310 309 308 308 309 310 310 309 313 315 316 317 318 320 321 322 324
324 322 322 321 321 319 319 317 318 319 318 319 318 316 316 316 316 315 316 315 315 315 315 316 316 316 316 314 315 314 313 314 314 314 313 312 312 312 312 312 312 312 312 312 312 311 309 308 308 306 307 308 308 309 311 312 314 315 316 317 318 320 320
322 322 322 321 320 319 318 317 316 315 316 315 314 314 314 314 314 314 313 313 313 314 315 315 315 315 316 315 313 314 314 313 313 313 311 312 311 310 311 312 313 314 312 313 312 310 310 309 308 305 306 308 304 305 307 308 309 311 313 315 317 316 317
320 321 320 318 318 317 317 315 315 315 314 313 313 313 313 312 312 312 313 313 313 313 313 314 315 314 315 312 312 313 313 314 313 313 312 313 312 312 311 310 310 312 312 311 309 309 307 307 305 304 304 304 304 302 305 305 307 305 308 311 312 313 314
318 317 317 318 317 316 315 315 316 315 313 312 311 313 313 313 312 312 311 312 312 312 312 312 313 313 313 312 311 312 313 314 313 312 311 311 310 311 310 310 310 310 308 308 308 308 307 307 306 305 303 299 299 300 300 302 303 303 304 307 309 310 311
317 317 316 316 316 316 316 315 314 313 312 311 312 312 312 312 312 310 309 310 311 311 311 311 310 310 311 311 310 310 309 312 311 310 309 310 308 310 309 310 309 308 307 307 307 307 307 307 306 305 303 301 298 295 298 298 299 300 304 303 306 308 308
315 314 314 315 315 316 317 314 313 312 313 313 312 313 312 312 311 311 310 309 310 310 310 310 310 309 310 310 309 308 308 310 310 310 309 308 308 309 308 308 306 306 305 307 307 306 306 306 305 304 303 301 300 297 295 294 296 297 300 303 300 303 306
315 314 314 314 315 314 314 313 313 312 311 312 312 312 312 311 311 311 309 309 309 309 309 309 309 309 309 308 308 308 308 309 308 309 308 308 308 308 308 307 305 305 305 305 305 305 305 305 303 303 302 302 301 298 297 294 295 298 298 301 302 301 303
314 314 314 314 314 312 312 312 311 312 312 312 312 311 310 309 309 309 309 308 308 308 308 308 309 308 308 307 307 307 307 307 307 306 308 308 307 307 306 306 305 304 304 304 304 304 304 303 301 301 300 301 300 299 297 296 293 297 300 297 300 303 302
313 313 313 313 312 310 309 310 310 311 311 311 311 310 309 308 308 307 307 307 307 307 306 307 308 307 308 307 307 306 306 306 305 305 306 306 307 306 304 303 303 303 303 302 302 302 301 300 300 299 299 299 298 298 298 296 294 293 298 298 299 301 302
312 312 312 313 311 310 311 310 310 310 310 310 310 309 308 307 306 306 306 305 304 304 305 305 306 306 306 306 307 306 306 305 305 305 305 304 305 304 304 302 302 302 302 301 300 300 299 299 299 298 299 298 297 297 297 295 293 293 296 299 299 299 301
312 311 311 311 310 309 309 310 310 310 309 309 309 307 308 308 307 306 305 303 303 303 303 303 304 304 303 305 307 307 306 305 305 304 304 302 303 304 304 302 301 301 302 300 299 298 298 298 297 297 297 297 296 296 297 295 294 293 292 296 297 299 299
310 310 310 310 309 308 309 309 309 309 308 309 309 308 308 307 307 305 303 303 302 301 301 301 302 302 302 303 304 305 306 305 305 304 303 302 302 302 302 301 300 300 301 299 298 298 298 297 297 296 296 296 296 296 297 297 295 293 293 293 296 296 297
310 310 309 309 308 308 309 309 309 309 308 308 308 308 308 306 306 304 303 302 301 300 299 299 300 301 302 302 304 305 304 305 304 303 303 302 302 301 300 300 299 299 299 297 297 297 297 297 296 296 295 296 296 296 296 296 296 294 293 292 294 295 297
309 309 308 308 309 309 308 308 308 307 308 308 308 308 307 306 305 304 303 301 300 299 298 298 299 300 301 303 305 305 304 304 304 303 304 303 303 301 300 299 299 298 298 297 296 296 296 296 296 295 295 295 295 296 296 295 295 295 294 292 293 296 297
308 308 308 308 308 308 308 308 307 308 307 306 307 307 306 305 304 302 302 300 299 298 297 298 298 298 299 301 303 305 305 305 305 303 303 302 301 301 300 299 299 298 297 296 296 296 296 295 295 294 294 294 295 295 294 294 295 294 294 294 294 294 296
307 307 307 307 308 307 307 307 306 306 307 307 306 306 306 305 305 303 302 300 298 297 297 297 297 297 298 299 300 303 305 304 304 303 302 302 301 301 300 299 299 299 297 297 296 296 295 294 294 294 294 294 295 294 294 294 294 294 294 293 294 294 294
307 307 307 306 306 307 306 306 307 307 307 307 307 306 305 304 304 303 302 300 298 297 296 296 296 295 296 297 298 300 303 304 303 301 302 302 302 300 300 299 299 298 298 298 297 295 294 293 293 293 294 294 294 294 294 294 294 293 293 293 292 292 294
306 306 306 306 306 306 306 306 306 306 306 307 308 306 305 305 303 302 301 300 297 297 296 296 295 294 294 295 297 300 301 303 302 302 301 302 301 300 299 299 299 299 300 302 299 298 297 296 294 292 293 294 294 294 294 294 293 293 292 292 292 293 293
305 305 305 305 305 305 305 306 306 306 306 306 306 306 305 304 302 301 299 298 298 297 295 296 295 293 293 294 295 299 300 303 303 302 301 301 300 300 299 299 301 302 301 301 298 296 295 295 296 295 294 294 294 294 294 293 293 292 292 291 291 292 291
304 304 305 305 305 305 305 306 305 306 306 306 306 306 305 303 301 299 298 297 297 296 295 295 293 291 292 292 295 296 299 302 303 302 301 299 299 299 298 298 299 299 300 299 297 295 294 294 294 294 295 296 297 296 294 293 293 293 292 292 292 292 291
303 303 303 303 304 304 305 305 304 305 305 305 305 306 305 303 302 300 298 297 296 296 295 294 291 292 292 291 293 295 299 303 302 302 300 299 299 299 298 298 298 299 298 297 296 295 295 295 294 294 294 294 294 294 294 294 293 293 293 291 291 291 291
302 302 302 303 304 304 303 303 303 303 304 305 305 304 304 305 303 301 298 296 295 295 295 293 291 292 292 291 291 294 299 304 301 301 300 299 299 299 298 298 297 298 298 300 298 295 294 294 295 295 295 296 296 295 293 292 293 295 294 292 291 291 291
301 302 302 302 303 302 303 302 303 303 303 303 303 304 304 304 304 302 300 298 296 295 295 293 291 292 292 291 291 293 301 302 302 302 300 299 300 300 298 298 297 296 296 296 295 294 293 293 293 294 294 295 295 296 295 294 294 294 294 294 293 291 293
301 301 302 302 303 302 302 303 303 303 304 303 303 302 302 303 304 303 301 299 298 296 295 292 291 291 291 291 292 296 301 301 301 301 302 301 300 301 299 299 297 296 296 295 295 293 293 292 292 293 294 294 294 294 295 295 295 294 295 295 294 294 294
301 301 301 302 302 302 303 302 302 303 303 302 303 302 302 302 303 303 304 301 299 296 295 291 291 291 292 291 293 299 300 298 299 299 300 301 299 300 299 297 296 296 296 295 295 292 292 293 292 292 292 293 294 294 294 297 295 294 295 295 295 295 295
301 301 301 301 301 301 301 302 302 303 302 302 302 301 301 300 300 301 301 303 300 297 295 292 291 291 291 291 294 297 298 297 297 297 297 299 299 301 300 297 298 296 294 294 294 291 291 292 292 292 292 292 293 293 293 295 295 294 294 293 293 293 293
301 301 301 301 301 302 302 303 303 304 302 301 301 301 301 300 299 299 299 299 302 298 295 294 291 291 291 291 294 296 297 296 295 295 296 298 299 300 298 302 298 295 294 294 292 290 291 293 292 292 292 291 292 292 292 294 295 295 295 294 294 294 293
301 301 301 301 302 302 302 302 303 304 303 303 302 302 301 301 301 300 299 300 301 301 297 295 292 291 291 291 294 295 296 295 294 293 295 296 298 298 299 299 298 295 295 294 291 291 290 292 291 291 291 291 291 291 291 292 292 292 294 294 294 295 294
301 301 301 302 302 302 303 303 303 302 302 300 299 300 301 301 301 301 301 300 301 302 300 298 295 292 292 292 292 295 296 294 293 292 294 295 296 296 296 296 297 292 292 291 291 291 291 290 291 291 292 292 291 290 292 291 293 293 293 293 293 294 294
302 302 302 302 302 303 304 304 305 305 303 302 302 303 303 302 301 301 302 303 302 303 302 299 296 292 293 292 291 292 295 294 294 293 293 294 295 295 294 295 296 295 292 292 291 291 291 291 291 292 292 293 291 292 291 291 293 295 293 293 293 293 293
303 303 302 302 302 302 303 303 304 303 302 303 304 303 304 303 302 301 301 302 302 301 299 301 299 293 292 292 291 291 294 295 295 294 293 293 294 294 294 295 295 295 292 292 291 291 290 290 290 293 294 291 290 290 292 293 293 293 293 293 292 292 292
303 303 303 303 302 302 304 304 305 303 302 302 303 302 303 303 302 302 302 302 301 301 299 297 294 296 292 291 290 291 290 292 291 296 293 293 294 294 295 295 296 295 292 291 291 290 290 290 291 293 290 289 290 290 292 293 293 292 292 291 291 290 291
303 303 303 302 302 302 302 303 302 303 302 302 301 301 300 301 302 302 302 301 301 300 300 297 294 293 295 291 291 290 290 289 290 293 294 294 295 294 294 294 294 291 290 291 291 290 290 291 292 290 289 289 290 292 293 292 291 292 291 290 290 290 290
Wind_Speed
5 5 5 6 6 6 6 5 5 5 6 6 6 7 6 4 3 5 5 6 6 6 5 6 6 5 5 5 8 7 6 6 7 7 6 7 8 7 9 9 8 7 7 6 6 7 8 9 12 10 8 10 12 10 8 10 11 10 10 9 9 8 6
5 4 4 5 7 5 6 5 5 6 5 6 6 5 4 6 6 6 6 6 6 6 6 6 6 5 5 8 7 7 8 8 8 7 6 7 7 7 9 8 8 8 8 7 8 10 9 10 9 10 12 13 11 7 9 10 11 13 13 13 12 11 9
5 5 4 6 6 5 5 5 4 3 4 4 4 5 6 8 7 6 6 7 6 6 6 7 6 6 7 8 8 8 8 7 6 5 7 7 6 7 7 7 8 8 8 7 8 10 8 6 8 11 11 13 13 11 11 11 14 13 13 14 14 12 11
5 4 4 5 6 5 5 5 4 3 4 4 4 5 6 6 6 6 6 7 7 6 6 6 6 6 6 6 5 6 6 5 4 5 5 4 4 5 6 6 7 7 7 8 9 9 9 8 10 11 11 10 12 15 12 13 13 14 12 11 11 12 11
4 4 3 5 6 5 5 5 3 3 3 4 4 5 5 6 6 6 7 6 6 6 5 4 5 5 4 4 4 4 3 3 3 3 3 3 4 4 4 4 3 4 5 5 6 6 7 7 8 10 10 11 12 9 12 12 12 11 12 11 11 11 12
4 4 4 5 5 4 4 5 4 4 4 5 6 5 5 6 5 5 6 6 5 5 5 5 5 5 4 4 5 4 3 3 4 3 3 3 3 3 4 3 2 2 3 3 5 5 5 5 6 8 9 9 11 12 11 11 10 10 10 10 10 12 13
4 5 5 5 5 5 5 5 4 4 5 5 5 5 5 5 5 6 6 6 6 5 6 5 5 6 5 6 6 5 5 4 4 4 4 4 4 5 5 5 6 4 4 6 6 6 7 7 7 7 9 8 9 10 9 10 10 12 9 8 10 11 11
5 6 5 5 5 6 5 4 3 5 6 5 5 4 5 5 5 5 6 6 6 5 6 5 5 5 5 5 5 5 4 4 3 4 5 5 6 6 6 5 6 5 7 6 5 6 6 6 7 7 9 12 11 9 10 10 11 10 12 10 10 10 10
5 5 5 5 6 5 3 3 6 6 5 5 5 5 5 5 5 6 6 7 6 6 6 6 6 5 5 5 5 5 5 4 4 6 5 5 6 6 6 6 6 6 7 6 6 6 6 7 7 7 8 9 11 13 11 11 10 11 12 12 10 9 10
7 7 6 7 6 4 2 5 6 5 5 4 4 4 5 4 5 5 6 6 6 6 6 6 6 6 5 5 4 5 5 5 4 4 4 4 5 5 5 6 7 7 7 6 5 6 6 6 7 7 8 9 9 11 11 13 11 12 13 12 12 12 12
7 7 6 6 6 5 6 5 4 5 4 4 4 4 4 5 5 6 5 5 5 6 6 6 6 6 5 5 5 5 5 4 4 4 5 5 5 5 5 4 5 5 6 6 6 7 7 9 9 10 9 9 9 10 10 12 12 9 12 12 11 13 15
7 7 6 5 5 7 7 5 5 5 5 4 4 4 4 5 4 5 5 5 5 6 6 6 6 5 5 5 5 5 5 5 5 5 4 4 4 5 6 5 5 5 6 6 7 7 8 10 10 9 9 9 9 10 11 11 13 8 10 13 13 14 15
7 7 7 6 6 7 7 6 6 5 5 4 4 5 5 5 5 6 6 6 6 6 6 6 6 6 5 4 4 4 5 5 5 5 4 6 5 6 6 6 7 6 7 7 8 9 9 9 9 8 8 8 9 9 9 10 12 14 10 12 12 15 18
7 7 7 7 7 7 6 6 5 5 5 4 5 5 5 6 7 6 7 7 7 7 7 7 6 5 5 4 4 4 4 5 5 4 5 6 5 5 6 6 7 8 9 8 7 7 8 8 8 8 8 8 8 8 9 11 13 15 11 9 11 12 14
6 6 7 7 7 7 6 5 5 5 5 5 5 6 6 4 6 6 7 8 8 8 8 7 7 6 6 5 3 4 4 5 5 5 4 5 4 5 5 6 8 9 9 9 9 9 8 8 9 8 9 9 9 9 9 10 12 13 17 12 12 11 12
7 7 7 6 7 7 6 6 6 5 5 5 5 5 5 6 7 7 8 7 7 8 8 8 7 7 6 7 6 4 4 4 4 5 4 5 6 6 6 6 8 9 7 8 9 8 7 8 9 9 10 9 10 10 10 10 12 15 17 15 13 14 13
8 7 7 6 7 6 6 5 5 6 6 5 5 4 5 7 7 7 7 7 8 8 8 8 8 7 7 7 5 5 5 4 5 5 5 6 6 6 6 6 8 8 7 7 8 7 7 8 8 9 10 10 10 11 10 10 11 13 14 16 14 15 14
7 7 7 6 7 6 6 5 5 6 5 6 5 4 5 7 7 7 7 8 8 8 9 8 8 8 7 7 6 4 4 4 4 4 4 6 7 7 7 7 8 7 7 7 7 7 7 9 9 10 10 10 10 10 10 11 13 13 14 16 16 13 14
8 7 7 7 7 6 5 5 5 5 7 7 6 6 6 6 6 7 8 8 8 8 8 8 9 9 8 8 8 5 4 3 3 4 5 5 5 6 6 7 7 7 7 7 8 8 8 10 10 10 11 11 11 11 11 12 12 14 14 15 16 16 13
7 7 6 6 6 6 6 5 6 6 6 6 6 6 6 7 5 7 8 8 8 8 8 8 8 8 8 8 8 8 3 4 4 4 4 5 5 5 5 6 5 5 6 6 7 8 9 10 10 12 11 11 10 11 11 11 12 14 14 15 15 14 15
7 7 6 6 6 6 6 6 6 5 5 6 6 6 6 6 5 7 7 8 8 7 7 8 8 8 8 8 7 9 6 3 4 5 3 4 4 5 6 6 4 5 5 7 7 8 10 10 10 10 10 10 10 12 11 12 12 12 14 14 14 15 13
6 7 7 7 7 6 6 6 6 6 5 5 4 5 7 6 7 8 7 7 8 7 6 6 5 6 7 8 7 7 8 3 4 3 3 3 3 5 5 5 4 5 10 11 11 13 12 12 9 10 10 10 11 11 10 10 11 12 13 14 14 13 15
8 8 8 8 7 7 6 6 6 6 6 6 5 5 6 7 8 7 7 7 7 6 6 5 8 11 7 6 6 6 7 4 3 3 3 3 4 4 4 4 6 14 14 10 12 11 13 13 15 12 11 11 11 9 8 11 12 13 14 15 14 14 15
8 8 8 7 7 7 7 6 6 7 6 5 5 5 5 7 7 7 8 7 6 5 6 6 13 14 15 14 7 6 6 4 3 3 3 4 4 3 5 4 3 7 9 7 7 11 12 14 13 15 18 15 11 10 11 11 9 10 13 14 13 13 13
9 9 8 8 8 8 7 7 7 6 6 6 4 4 5 6 7 7 6 6 6 5 6 9 14 15 15 17 12 6 6 2 4 3 3 5 3 3 3 3 4 4 4 6 6 7 11 13 14 15 16 14 12 12 10 10 11 9 11 14 15 14 14
9 8 8 8 7 7 7 7 7 7 6 5 4 5 4 4 6 7 6 6 6 6 6 10 14 15 16 17 17 12 5 2 4 3 3 5 3 3 4 3 3 4 4 10 8 8 9 10 13 15 15 13 12 14 13 12 9 9 10 12 14 14 14
9 9 8 8 7 8 7 7 6 6 5 5 5 4 4 4 4 6 6 6 5 5 6 9 13 15 15 17 17 13 5 4 3 3 4 4 3 2 4 2 3 3 4 4 6 8 9 9 10 10 10 10 10 11 12 12 12 12 10 8 9 12 14
9 9 8 8 7 7 7 6 6 5 4 5 5 4 4 3 3 4 6 5 4 5 5 10 12 14 15 17 18 13 4 6 4 4 2 3 4 3 1 4 3 3 3 4 7 12 11 9 10 9 9 11 11 10 10 9 9 9 8 7 9 10 12
9 8 9 8 8 7 6 5 5 4 4 4 4 4 4 3 3 3 3 5 5 5 4 9 11 13 15 16 16 9 5 6 6 7 7 3 5 3 3 4 3 3 3 5 12 16 15 9 9 10 11 11 11 10 10 10 12 12 10 9 9 10 12
9 9 8 8 8 7 6 5 5 4 5 4 4 4 4 4 3 3 3 3 5 4 4 6 9 10 12 14 12 8 6 6 6 7 9 6 4 2 3 4 3 2 5 9 14 15 17 14 9 11 11 11 11 11 12 11 12 13 14 14 14 15 18
9 9 8 8 7 6 5 4 4 4 4 4 5 5 5 5 5 4 4 3 2 5 3 4 7 9 10 12 11 7 6 6 6 8 8 8 9 2 3 7 4 7 11 11 14 14 17 13 10 11 11 12 12 12 13 12 10 10 12 12 15 17 19
9 8 9 8 6 6 5 4 3 3 3 3 4 4 4 4 5 4 4 3 3 4 4 3 5 7 9 9 8 6 6 5 6 7 7 8 8 6 2 3 6 14 13 14 17 16 17 15 11 10 11 11 11 12 13 15 14 13 10 12 13 15 15
8 8 8 7 6 5 4 4 4 5 5 4 4 4 3 3 3 3 5 4 3 2 4 3 3 5 6 7 7 6 5 5 6 7 7 7 8 6 6 8 7 11 16 15 17 19 17 18 13 10 9 9 10 13 13 13 14 12 11 13 14 14 16
8 7 6 6 5 4 3 3 2 2 3 4 3 3 3 4 4 4 3 3 4 3 3 4 3 4 5 6 7 4 4 4 4 6 6 7 6 6 6 6 7 11 15 16 18 20 19 18 17 9 8 7 9 14 16 12 12 12 11 13 14 14 14
7 6 6 6 5 4 4 3 3 3 4 3 3 3 3 3 3 3 4 3 4 6 3 4 3 2 3 6 7 6 3 4 4 5 6 6 6 5 5 5 5 10 14 17 19 19 19 18 19 8 8 11 16 18 16 11 7 9 10 12 13 14 15
6 6 5 5 5 5 3 3 3 4 4 4 3 3 2 2 3 2 3 3 5 6 5 3 3 3 2 7 6 9 8 3 6 5 5 6 5 5 5 6 9 15 18 20 20 19 17 19 14 8 12 14 14 18 14 8 10 9 11 11 13 15 16
6 6 6 5 5 4 4 3 4 4 5 5 5 5 4 4 3 2 2 3 4 6 7 5 2 8 3 8 6 9 9 7 5 5 6 5 5 5 6 8 11 17 19 20 20 18 16 13 11 15 13 13 15 14 9 10 10 10 10 12 13 15 16
Wind_Direction
96 95 87 81 78 71 60 55 67 53 39 39 35 30 31 28 20 40 31 30 12 7 16 38 25 23 359 32 33 21 20 16 19 18 357 1 359 349 352 349 350 344 345 329 330 328 323 326 325 331 334 340 338 331 331 346 340 334 333 329 317 304 289
102 103 97 94 87 74 69 55 54 62 60 46 40 32 40 31 21 25 34 38 21 13 18 34 26 14 2 39 28 31 23 24 18 9 360 10 1 354 348 356 342 347 345 344 345 357 347 336 322 330 329 332 328 322 345 340 340 341 338 330 322 316 306
99 93 92 98 98 93 84 74 57 61 70 61 50 34 23 42 29 22 23 42 31 22 24 33 22 5 33 36 30 37 32 28 20 3 21 13 359 0 1 349 351 353 349 349 2 349 342 335 332 327 330 330 326 329 334 336 338 335 332 324 319 314 306
106 104 106 112 110 106 101 90 79 55 53 64 64 42 33 34 36 31 23 37 39 27 27 35 22 19 36 41 35 41 44 38 28 22 24 17 3 4 5 2 0 359 347 346 351 351 346 340 334 324 323 324 327 320 323 329 326 323 316 312 321 323 335
98 111 113 113 119 119 109 94 80 68 82 78 66 60 33 39 37 31 33 34 40 30 26 29 37 16 35 55 37 52 33 34 30 19 40 13 8 7 12 360 357 333 339 351 355 347 341 337 328 321 323 329 318 312 315 316 316 310 319 327 320 324 346
62 93 99 97 89 100 104 100 92 75 66 59 47 42 43 49 40 35 40 35 35 33 27 24 36 21 5 55 30 41 35 33 24 12 28 10 12 360 357 323 294 316 354 356 353 334 332 329 329 324 322 323 315 317 317 319 317 322 319 317 336 343 334
69 62 73 81 75 72 72 68 74 77 72 64 57 45 35 48 50 48 41 42 37 36 32 23 34 27 11 38 33 16 24 5 31 6 7 11 19 355 19 347 338 355 25 20 360 351 349 341 338 330 325 320 315 312 314 317 322 317 321 334 334 326 323
75 62 60 73 82 81 75 104 115 76 66 65 61 45 39 39 53 54 51 38 37 33 33 28 25 31 16 38 36 10 13 350 28 24 13 17 13 5 18 347 340 14 33 11 354 7 341 344 330 335 337 328 324 320 321 319 316 317 318 323 329 326 332
93 83 80 73 73 73 87 87 76 74 78 71 68 65 48 44 37 50 49 45 36 32 29 30 29 27 22 29 36 13 7 353 22 31 17 14 15 9 5 353 358 27 27 2 0 4 348 339 346 346 340 330 328 323 324 319 325 313 328 322 323 328 334
96 97 92 87 93 109 103 67 72 80 73 74 79 68 65 51 49 48 50 45 38 32 26 27 30 28 27 16 30 20 5 360 20 26 20 22 19 14 356 19 19 18 17 355 2 2 347 350 357 350 341 340 335 321 322 319 322 322 323 331 326 324 330
112 117 123 141 148 124 94 91 90 83 84 81 76 78 73 62 50 52 52 45 45 36 32 24 26 28 27 22 12 24 2 0 20 12 24 29 23 16 356 34 32 21 10 357 8 1 359 4 2 355 348 343 338 329 324 316 314 317 313 323 320 318 323
135 135 147 123 97 95 94 89 81 78 77 68 71 70 69 63 59 49 47 53 40 42 34 28 21 24 29 23 15 15 4 6 22 12 22 21 23 20 356 22 32 25 16 2 13 4 12 10 2 353 345 342 340 336 330 320 309 314 322 314 318 317 317
118 111 93 99 108 107 101 96 92 90 84 77 68 65 60 60 61 60 44 40 43 36 38 27 17 23 13 27 24 7 12 11 25 18 15 24 23 18 3 18 24 23 19 11 19 12 12 5 355 346 343 340 334 333 327 317 307 304 316 312 314 316 316
102 101 97 81 82 82 84 87 90 94 91 86 79 67 65 63 55 50 52 46 37 32 34 25 16 19 8 8 29 13 15 13 18 25 16 28 29 11 20 12 27 28 22 23 22 10 4 358 350 341 338 335 329 328 324 317 311 306 304 307 310 311 315
103 106 111 110 103 100 94 90 83 74 71 69 73 73 70 66 72 63 54 46 36 35 25 25 15 8 10 354 11 21 13 16 21 25 24 25 23 15 24 21 31 30 24 15 20 7 1 356 344 339 337 333 326 321 320 315 310 309 308 316 313 312 308
109 103 99 98 98 98 99 101 99 95 83 73 70 75 67 63 58 61 56 48 41 35 29 19 16 4 8 354 353 23 15 14 28 22 14 33 28 20 26 24 41 34 18 17 14 360 356 348 342 338 334 329 324 321 320 319 317 312 313 312 316 314 319
110 108 105 104 102 99 93 84 85 90 94 88 77 65 72 70 67 56 52 50 42 38 27 21 14 5 3 349 344 23 17 15 33 18 10 39 29 25 25 25 44 29 23 14 7 354 351 345 340 335 328 326 322 324 324 323 321 314 313 311 316 317 317
107 104 103 100 98 95 91 92 93 89 83 84 80 82 77 77 68 62 55 45 40 36 30 22 17 5 360 343 338 23 14 23 40 11 19 34 35 31 21 31 42 27 17 9 358 350 345 346 339 332 328 328 329 330 328 326 321 317 313 311 312 314 313
111 110 107 105 104 104 102 99 93 90 93 92 87 76 71 60 67 65 56 48 42 37 33 26 18 7 357 346 338 343 31 8 27 36 16 41 46 32 38 22 35 31 3 8 353 350 358 347 336 331 332 334 335 332 328 324 322 319 315 312 314 313 317
116 114 109 107 105 103 101 97 91 86 89 95 96 90 81 80 72 66 63 55 45 36 33 29 18 3 353 346 339 325 39 348 30 48 19 32 38 46 39 35 32 22 6 7 3 13 356 345 341 338 338 338 335 327 323 323 319 319 319 316 315 315 314
118 118 117 107 99 96 92 84 81 82 85 85 86 92 95 91 86 75 66 63 52 40 31 29 17 1 348 344 336 327 343 27 22 33 18 29 37 46 33 30 13 15 25 25 38 11 1 349 342 338 338 328 324 320 320 323 322 324 324 321 318 316 315
117 114 112 109 104 101 99 102 105 98 85 74 74 87 90 83 78 72 69 64 58 42 33 23 21 358 343 342 336 337 324 354 34 26 18 11 46 50 28 23 343 34 29 52 42 23 357 345 341 336 328 319 316 315 314 322 327 326 324 320 316 315 315
122 116 114 112 109 105 99 96 93 89 86 87 79 78 89 87 76 70 63 61 60 48 27 20 355 6 10 357 326 330 320 330 25 23 7 344 63 55 40 24 346 29 33 32 34 10 349 342 344 338 317 315 316 312 307 326 328 327 324 320 318 317 315
128 119 109 110 115 108 101 94 87 84 82 84 90 94 91 90 83 71 67 59 54 50 30 5 358 5 357 5 1 326 313 323 359 4 14 342 50 33 43 10 346 30 30 16 21 4 348 343 340 330 317 307 301 319 332 327 315 319 323 322 319 316 313
123 124 124 118 114 114 114 107 99 99 100 96 89 85 88 96 94 84 73 66 54 43 30 9 4 4 1 355 358 339 303 344 326 37 15 341 34 42 51 15 358 49 14 358 11 355 347 338 336 327 315 312 321 330 329 326 325 324 330 327 321 321 317
127 123 118 115 113 111 107 105 102 98 95 93 87 81 77 85 102 101 86 69 55 37 28 11 7 7 2 357 351 344 306 349 340 31 35 334 19 15 61 21 10 13 17 353 8 346 340 336 331 321 311 321 328 333 330 322 321 330 327 322 323 317 318
121 116 116 116 116 110 108 103 106 105 103 94 89 87 82 82 97 101 97 87 67 44 28 4 13 6 3 357 349 343 291 353 346 1 31 345 334 22 73 25 23 27 1 8 353 345 337 336 328 322 322 326 324 324 324 327 329 323 319 308 304 308 303
122 123 120 117 113 111 113 124 121 120 116 116 114 104 93 82 72 97 105 99 83 60 25 11 17 9 3 0 349 338 353 349 354 332 39 323 305 83 61 63 53 34 0 2 353 345 337 333 325 317 318 321 319 323 322 323 324 323 316 305 300 282 292
121 121 121 119 120 120 119 113 109 107 104 100 100 101 95 83 70 67 99 109 101 76 42 22 20 11 3 2 351 338 351 7 351 343 334 351 342 69 50 79 68 3 11 349 354 341 329 331 323 321 319 315 313 314 319 315 307 308 300 291 293 298 303
124 127 126 124 121 119 121 124 120 123 116 113 109 105 104 92 74 60 41 68 107 92 62 25 29 17 4 1 356 342 341 14 350 347 331 333 343 83 62 78 46 33 7 8 347 334 326 333 324 320 316 314 310 310 317 319 315 316 310 289 281 294 304
130 128 129 127 126 128 126 120 123 133 131 137 135 134 129 118 111 85 69 48 50 112 86 43 37 23 12 0 355 344 341 10 357 344 335 337 329 64 100 83 61 32 17 357 333 327 323 326 323 316 314 315 314 315 319 320 319 319 298 307 322 322 318
131 129 123 124 129 128 123 115 112 113 125 134 142 141 130 132 130 130 118 113 53 108 125 96 50 35 18 3 359 342 349 15 351 347 332 330 319 331 94 173 40 29 9 337 327 323 321 322 318 312 313 311 311 319 322 324 322 320 318 336 331 328 322
126 125 126 128 131 126 132 146 159 163 168 153 135 121 117 110 121 137 156 159 141 102 109 108 77 53 25 353 2 342 342 4 354 342 335 323 325 335 353 344 349 17 350 328 322 320 319 315 311 308 308 303 314 323 323 321 317 310 326 338 329 326 320
123 125 129 126 122 124 128 131 137 114 92 85 87 100 138 157 153 155 156 168 153 125 94 130 122 66 31 350 347 359 331 355 344 337 323 328 322 330 350 344 341 331 319 323 318 316 313 308 304 303 295 292 311 309 313 318 310 312 340 334 329 324 322
125 127 129 130 130 122 127 141 140 134 110 120 156 180 182 160 157 160 169 175 128 123 89 68 143 143 32 348 341 346 336 335 325 316 321 330 314 336 333 311 313 309 315 316 314 310 306 302 302 303 281 291 303 313 319 303 305 337 342 336 328 326 324
127 131 130 133 130 134 154 156 141 122 146 161 161 167 172 183 159 161 157 133 123 135 130 120 100 108 88 2 358 354 2 340 314 304 326 312 310 323 312 317 319 317 316 310 308 304 301 300 300 306 302 305 308 317 314 327 332 344 342 336 332 328 326
131 129 137 136 139 149 150 149 165 174 190 186 180 188 171 181 160 134 129 121 128 135 151 152 125 82 61 19 5 3 354 339 326 319 316 290 306 318 319 319 311 308 308 305 303 298 294 303 321 317 312 306 323 321 324 335 340 343 342 337 333 329 326